Wind_Speed
84 85 85 86 87 87 89 89 90 91 91 92 92 93 94 94 95 95 96 96 97 97 98 99 99 100 101 102 103 103 104 105 105 106 107 107 108 109 110 110 111 112 112 113 114 114 115 115 116 116 116 116 116 116 116 116 116 115 115 115 114 114 113 113 112 112 112 111 111 111 111 111 111 111 111 111 110 110 109 108 108 108 107 107 107 107
85 86 86 87 87 88 89 90 91 91 92 92 93 94 94 95 95 96 97 97 98 98 99 100 101 102 103 104 104 105 106 106 107 108 109 109 110 111 112 112 113 114 115 115 116 116 117 117 117 117 117 117 117 117 117 117 116 116 115 115 114 114 113 112 112 111 111 111 110 110 110 110 110 110 110 109 109 108 107 107 106 106 105 105 105 105
86 87 87 88 88 89 90 91 92 92 93 93 94 94 95 95 96 97 98 98 99 100 100 101 102 103 104 105 106 107 107 108 109 110 110 111 112 113 113 114 115 115 116 117 117 117 118 118 118 118 117 117 117 117 117 116 116 115 115 114 113 113 112 111 111 110 110 109 109 109 109 109 109 109 109 108 107 106 105 105 104 104 103 103 102 102
87 88 88 89 89 90 91 92 93 93 94 94 95 95 96 96 97 98 98 99 100 101 102 103 103 104 105 106 107 108 109 110 111 111 112 113 113 114 115 115 116 116 117 117 117 118 118 118 118 117 117 116 116 116 115 115 114 114 113 112 112 111 110 110 109 108 108 107 107 107 107 107 107 107 107 106 105 104 104 103 102 102 101 100 100 100
88 88 89 89 90 91 92 93 93 94 95 95 96 96 97 97 98 99 99 100 101 102 103 104 105 106 107 108 109 109 110 111 112 113 114 114 115 115 115 116 116 116 117 117 117 117 117 117 117 116 116 115 114 114 113 113 112 111 111 110 109 109 108 107 107 106 105 105 105 104 104 104 104 104 104 103 103 102 102 101 100 100 99 98 98 97
89 89 90 90 91 92 93 94 94 95 96 96 97 97 98 98 99 99 100 101 102 103 104 105 106 106 107 109 110 111 112 112 113 114 115 115 115 115 115 115 115 115 116 116 116 115 115 115 114 114 113 113 112 111 111 110 109 109 108 107 107 106 105 105 104 103 103 102 102 102 102 101 101 101 100 100 100 99 99 99 98 97 97 96 96 95
89 90 90 91 92 93 94 95 95 96 97 97 98 98 98 99 100 100 101 102 103 104 105 106 106 107 108 109 110 111 112 113 114 114 115 115 115 115 114 114 114 114 114 114 113 113 113 112 112 111 111 110 109 109 108 107 107 106 105 105 104 103 103 102 102 101 101 100 100 99 99 98 97 97 96 96 96 96 96 96 95 95 94 94 93 93
90 91 92 92 93 94 95 96 96 97 98 98 99 99 100 100 100 101 102 103 104 105 105 106 107 108 109 110 110 111 112 113 113 114 114 114 114 113 113 113 113 112 112 112 111 110 110 109 109 108 107 107 106 105 105 104 104 103 102 102 101 101 100 100 100 99 99 98 97 96 95 94 94 93 92 92 92 92 92 92 92 91 90 90 90 89
92 92 93 93 94 95 96 97 98 98 99 99 100 100 101 101 101 102 103 103 104 105 106 107 108 108 109 110 110 111 111 111 112 112 112 112 112 112 112 111 111 111 110 109 109 108 107 106 105 105 104 103 103 102 102 101 101 100 100 99 99 98 98 98 97 96 95 94 93 92 91 91 90 89 88 88 88 88 88 87 87 87 86 86 85 85
93 93 94 95 96 97 98 99 100 100 100 100 101 101 101 102 103 103 104 104 105 105 106 107 108 108 109 109 109 109 109 110 110 110 111 111 111 111 110 110 109 108 108 107 106 106 105 104 103 102 101 100 100 99 99 98 98 97 97 96 96 96 95 94 93 92 91 90 89 88 87 87 86 85 85 84 83 83 83 83 82 82 81 81 81 80
95 95 96 97 98 98 99 100 101 101 102 102 102 103 103 103 103 104 105 105 105 106 106 106 107 107 108 108 108 108 108 108 108 109 109 109 109 109 109 108 107 107 106 105 104 103 102 101 100 99 98 97 96 96 95 95 94 94 94 93 93 92 91 90 88 87 86 85 85 84 83 82 82 81 81 80 79 79 78 78 78 77 77 77 76 76
96 97 97 98 100 100 101 102 102 103 103 104 104 105 105 104 104 104 105 105 106 106 106 106 106 106 107 107 107 107 107 107 107 107 107 107 107 107 107 106 105 105 104 103 102 101 100 98 97 95 94 93 93 92 92 91 91 90 90 89 88 87 86 85 83 82 82 81 80 80 79 78 78 77 77 76 75 75 74 74 74 73 73 73 72 72
98 98 99 100 101 102 103 104 104 104 105 105 105 105 106 105 105 105 105 105 105 105 105 105 105 106 105 105 106 106 106 105 105 105 105 105 105 105 105 104 103 102 101 100 99 98 97 95 93 92 90 89 88 88 87 87 86 86 85 84 83 82 81 80 79 78 77 77 76 75 75 74 74 73 73 72 72 71 71 70 70 70 69 69 69 68
99 100 101 102 103 104 104 105 105 106 106 106 106 105 105 105 105 105 104 105 104 104 104 104 104 104 104 104 104 104 104 103 103 102 102 102 102 102 101 101 100 99 98 97 96 94 92 91 89 87 86 85 84 83 83 82 82 81 80 79 78 77 76 75 74 74 73 73 72 72 71 71 70 70 69 69 68 68 67 67 67 66 66 66 65 65
101 102 103 104 104 105 105 106 106 106 106 106 105 105 104 104 104 104 104 104 104 103 103 102 103 102 102 102 102 102 101 101 100 99 98 99 98 98 97 97 95 94 93 92 91 89 87 86 84 83 81 80 80 79 79 78 77 77 76 74 73 73 72 71 70 70 70 69 69 68 68 67 67 66 66 65 65 65 64 64 64 63 63 63 62 62
102 102 104 104 105 105 106 106 106 106 106 105 104 104 103 103 103 103 103 103 102 102 101 101 101 101 100 100 99 99 98 97 96 95 94 94 94 94 93 92 90 89 88 86 85 83 82 80 79 78 77 77 76 75 75 74 73 72 71 70 69 68 68 67 67 67 66 66 65 65 65 64 64 63 63 63 62 62 61 61 61 60 60 60 60 59
102 103 104 105 105 105 106 106 106 105 105 104 103 102 102 102 101 101 101 101 101 100 100 99 99 99 98 97 96 95 94 93 92 91 90 90 90 89 88 87 85 84 82 81 79 78 76 76 75 74 73 73 72 72 71 70 69 68 67 66 66 65 64 64 64 63 63 63 62 62 62 61 61 61 60 60 59 59 59 58 58 58 58 57 57 57
103 104 104 105 105 105 105 105 105 104 103 102 102 101 100 100 100 100 99 99 99 98 98 97 96 95 95 94 93 91 90 88 87 86 85 85 85 84 83 81 80 78 77 76 74 73 72 71 71 70 70 69 69 68 67 66 65 64 64 63 62 62 61 61 61 61 60 60 60 59 59 59 59 58 58 57 57 56 56 56 56 55 55 55 55 54
104 104 105 105 105 105 105 105 104 103 102 101 100 100 99 99 98 98 98 97 96 96 95 94 93 92 91 90 89 87 85 84 82 81 81 81 81 80 78 76 75 74 73 72 71 69 69 68 67 67 67 66 66 65 64 63 62 61 61 60 59 59 59 58 58 58 57 57 57 57 56 56 56 56 55 55 54 54 54 53 53 53 53 52 52 52
105 105 105 105 105 105 105 104 103 102 101 100 99 98 98 97 97 96 95 94 94 93 92 91 90 89 87 86 84 82 80 79 78 77 77 77 77 76 74 72 71 70 69 68 67 66 65 65 65 64 64 63 63 62 61 60 59 58 58 57 57 56 56 56 56 55 55 55 54 54 54 54 53 53 53 52 52 51 51 51 50 50 50 50 50 49
106 106 106 105 105 105 104 103 102 101 100 99 98 97 97 96 95 94 93 92 91 90 89 87 86 85 83 82 80 78 76 75 74 73 73 73 73 72 70 69 68 67 67 65 64 63 62 62 62 62 61 61 60 59 58 57 57 56 55 55 54 54 54 53 53 53 53 52 52 52 51 51 51 50 50 50 49 49 48 48 48 48 47 47 47 47
107 106 106 105 104 104 103 102 101 100 98 98 97 96 95 94 93 91 90 89 88 87 85 84 83 81 80 78 76 74 72 71 70 70 70 70 70 69 67 66 65 65 64 62 61 61 60 60 60 59 59 58 57 56 56 55 54 53 52 52 52 52 51 51 51 50 50 50 49 49 49 48 48 48 47 47 47 46 46 45 45 45 45 45 45 44
106 106 105 104 103 103 102 101 100 99 97 96 95 94 93 92 91 90 88 87 85 84 82 81 80 78 77 75 73 71 69 68 67 67 67 67 67 66 65 64 63 62 61 60 59 58 58 58 58 57 56 56 55 54 53 52 51 50 50 50 49 49 49 49 48 48 48 47 47 47 46 46 45 45 44 44 44 44 43 43 43 42 42 42 42 42
106 105 104 103 102 102 101 100 99 98 96 95 94 92 91 89 88 87 86 84 82 80 79 78 76 75 74 72 70 68 67 66 65 65 65 65 64 63 62 61 61 60 58 57 56 56 56 56 55 55 54 53 52 51 50 49 48 48 48 47 47 47 47 46 46 46 45 45 44 44 43 43 43 42 42 42 41 41 41 40 40 40 40 40 40 39
105 104 103 102 101 101 100 99 98 97 95 94 92 91 89 88 86 85 83 81 79 77 76 74 73 72 71 69 67 66 65 64 63 63 62 62 62 61 60 59 58 57 56 55 54 54 54 54 53 52 51 50 49 48 47 47 46 46 46 45 45 45 44 44 43 43 43 42 42 42 41 41 40 40 40 39 39 39 38 38 38 38 38 37 37 37
104 103 102 101 100 99 99 98 97 95 94 93 91 89 87 86 84 82 80 78 76 74 73 72 71 69 68 67 65 64 63 62 61 61 60 60 59 59 58 57 56 55 54 53 52 52 52 51 51 50 49 48 47 46 45 44 44 44 43 43 43 42 42 41 41 41 40 40 40 39 39 38 38 38 37 37 37 37 36 36 36 36 35 35 35 35
103 102 100 100 99 98 98 97 96 94 93 91 89 87 85 83 82 80 78 75 73 71 70 69 68 67 66 64 63 62 61 60 60 59 58 57 57 57 56 55 53 52 51 51 50 50 50 49 49 48 46 45 44 43 43 42 42 42 42 41 41 40 40 39 39 39 38 38 38 37 37 36 36 36 35 35 35 34 34 34 34 34 33 33 33 33
102 101 100 99 98 97 96 95 94 93 91 89 87 85 83 81 79 77 74 72 70 69 68 67 66 64 63 62 61 60 59 58 58 57 56 55 55 54 53 53 52 50 49 49 48 48 48 47 47 45 44 43 42 42 41 41 40 40 40 39 39 38 38 37 37 37 36 36 36 35 35 34 34 34 33 33 33 32 32 32 32 31 31 31 31 31
101 100 99 98 97 96 95 94 92 91 88 86 84 82 80 78 76 74 71 69 68 67 66 65 63 62 61 60 59 58 57 57 56 55 54 53 53 52 51 51 50 48 47 46 46 46 46 45 45 43 42 41 40 40 40 39 39 38 38 37 37 36 36 35 35 35 35 34 34 34 33 33 32 32 31 31 31 30 30 30 29 29 29 29 29 29
100 99 98 97 96 95 94 92 90 88 86 84 81 79 78 75 73 71 69 67 66 65 64 63 61 60 59 58 57 57 56 55 54 53 52 51 51 50 49 49 48 47 46 45 44 44 44 44 43 41 40 39 39 38 38 37 37 37 36 36 35 35 34 34 34 33 33 33 32 32 31 31 30 30 29 29 29 28 28 28 27 27 27 26 26 26
99 98 97 96 94 93 92 90 88 85 83 81 78 77 75 73 70 68 66 65 64 63 62 61 59 58 57 56 55 55 54 53 52 51 50 49 49 48 47 47 46 45 44 43 42 42 42 42 41 40 39 38 37 37 36 36 35 35 34 34 33 33 33 32 32 32 32 31 31 30 30 29 29 28 28 27 27 26 26 26 25 25 25 24 24 24
97 96 95 94 92 91 89 87 84 82 79 77 76 74 72 70 68 66 64 63 62 61 60 59 58 56 55 54 53 53 52 52 51 49 48 47 47 46 46 45 44 43 43 42 41 40 40 40 39 38 37 36 35 35 35 34 34 33 33 32 32 31 31 31 31 30 30 30 29 29 28 27 27 26 26 25 25 25 24 24 24 23 23 22 22 22
95 94 92 91 90 88 86 84 81 79 76 75 73 71 69 67 65 64 62 61 60 59 58 57 56 55 54 53 52 51 50 50 49 47 46 46 45 45 44 43 43 42 41 40 39 38 38 37 37 36 36 35 34 33 33 32 32 32 31 31 30 30 30 29 29 29 29 28 28 27 26 26 25 24 24 24 23 23 23 22 22 21 21 21 20 20
92 91 89 88 86 85 83 80 78 75 74 72 71 69 67 65 63 62 61 60 59 58 56 55 54 53 52 51 50 49 49 48 47 46 45 44 43 43 42 42 41 40 40 39 38 37 36 36 35 34 34 33 33 32 31 31 30 30 30 29 29 28 28 28 28 27 27 27 26 25 25 24 23 22 22 22 21 21 21 20 20 20 19 19 19 18
89 87 86 84 83 81 79 76 74 73 71 70 68 67 65 63 61 60 59 58 57 56 54 53 52 51 50 49 49 48 47 47 46 45 44 43 42 42 41 40 40 39 38 37 37 36 35 35 34 33 32 32 31 31 30 29 29 28 28 27 27 27 27 26 26 26 26 25 25 24 23 22 21 20 20 20 19 19 19 19 18 18 18 17 17 17
85 83 82 80 79 77 75 73 71 70 69 67 66 64 63 61 59 58 57 56 55 54 53 52 51 50 49 48 47 46 46 45 44 44 43 42 41 40 40 39 38 37 37 36 36 35 34 33 33 32 31 30 30 29 28 27 27 26 26 26 25 25 25 25 25 24 24 24 23 22 21 20 19 19 18 18 18 17 17 17 16 16 16 16 15 15
81 79 78 76 75 73 71 69 68 67 66 65 64 62 60 59 57 56 55 54 53 52 51 50 49 48 47 46 45 45 44 44 43 42 41 40 40 39 38 38 37 36 35 35 34 34 33 32 32 31 30 29 28 27 26 26 25 24 24 24 24 24 24 24 23 23 23 22 22 21 20 19 18 17 16 16 16 16 15 15 15 14 14 14 14 14
77 76 74 73 71 69 67 66 65 65 64 62 61 60 58 57 55 54 53 52 51 50 49 48 47 47 46 45 44 43 43 42 42 41 40 39 39 38 37 37 36 35 34 33 33 32 32 31 31 30 29 28 27 26 25 24 23 22 22 22 22 22 22 22 22 22 21 21 21 20 19 17 16 16 15 15 14 14 14 13 13 13 12 12 12 12
74 72 71 69 68 66 65 64 63 62 61 60 59 57 56 55 54 52 51 51 50 49 47 47 46 45 44 43 43 42 41 41 40 40 39 38 37 37 36 35 35 34 33 32 32 31 30 30 30 29 28 27 26 25 23 22 21 21 20 20 20 21 21 21 21 21 20 20 19 19 18 16 15 14 13 13 13 12 12 12 11 11 11 11 10 10
71 69 68 66 65 63 62 61 61 60 59 57 56 55 54 53 52 51 50 49 48 47 46 45 44 44 43 42 41 41 40 40 39 38 38 37 36 35 35 34 34 33 32 31 30 30 29 29 29 28 27 27 25 24 23 21 20 19 19 18 18 19 19 19 20 20 19 19 19 18 17 16 14 13 12 12 11 11 11 10 10 10 10 9 9 9
68 67 65 64 62 61 60 59 58 58 56 55 54 53 52 51 50 49 48 47 46 45 44 44 43 42 41 41 40 39 39 38 38 37 36 36 35 34 34 33 32 32 31 30 29 29 28 28 27 27 26 25 25 23 22 21 19 18 18 17 17 17 18 18 18 18 18 18 18 17 16 15 14 12 11 11 10 10 10 9 9 9 9 8 8 8
66 65 63 62 60 59 58 57 56 55 54 53 52 51 51 50 48 47 46 45 44 44 43 42 41 41 40 40 39 38 38 37 36 36 35 34 34 33 32 32 31 30 30 29 28 28 27 27 26 25 25 24 24 23 22 20 19 18 17 16 16 16 16 17 17 17 17 17 17 16 16 14 13 12 11 10 9 9 9 9 8 8 8 7 7 7
64 63 61 60 58 58 57 56 55 54 52 51 51 50 49 48 47 46 45 44 43 42 41 41 40 39 39 38 38 37 37 36 35 35 34 33 32 32 31 31 30 29 29 28 28 27 26 26 25 24 24 23 23 22 21 20 19 18 17 16 15 15 15 15 16 16 16 16 16 16 15 14 13 12 10 9 8 8 8 8 8 7 7 6 6 6
62 61 59 58 57 56 55 54 53 52 51 50 49 48 47 46 45 44 43 42 41 41 40 39 39 38 38 37 37 36 35 35 34 33 33 32 31 31 30 29 29 28 28 27 27 26 26 25 24 23 23 22 22 21 21 20 19 18 17 16 15 14 14 14 14 15 15 15 15 15 15 14 13 12 10 9 8 8 8 8 7 7 6 6 6 5
60 59 57 56 55 54 54 53 51 50 49 48 47 47 46 45 44 43 41 41 40 39 39 38 37 37 36 36 35 35 34 33 33 32 32 31 30 30 29 28 28 27 27 26 26 25 25 24 23 23 22 22 21 21 20 20 19 19 18 17 16 15 14 14 13 13 13 14 14 15 15 14 13 12 11 9 8 8 7 7 7 6 6 6 5 5
58 57 56 55 54 53 52 51 50 49 48 47 46 45 44 43 42 41 40 39 39 38 37 37 36 36 35 35 34 33 33 32 32 31 30 30 29 28 28 27 26 26 25 25 25 25 24 24 23 23 22 22 21 21 20 20 20 19 19 18 17 16 14 13 13 12 12 13 13 14 14 14 14 13 11 10 8 8 7 7 7 6 6 5 5 5
56 55 54 53 52 51 50 49 48 47 46 45 45 44 43 42 41 40 39 38 37 37 36 36 35 34 34 33 33 32 32 31 30 30 29 29 28 27 27 26 25 25 24 24 24 24 23 23 23 22 22 22 21 21 20 20 20 19 19 18 18 17 15 14 12 11 11 12 12 13 14 14 14 14 12 11 9 8 7 7 7 6 6 6 6 6
54 53 52 51 51 50 49 48 46 45 44 44 43 42 41 40 39 38 37 37 36 36 35 34 34 33 33 32 32 31 30 30 29 29 28 27 27 26 25 25 24 24 23 23 23 23 23 23 23 22 22 21 21 21 20 20 20 19 19 18 18 17 16 15 13 12 11 11 11 12 13 14 14 14 13 12 10 8 7 7 7 7 6 6 6 6
53 51 51 50 49 48 47 46 45 44 43 42 42 41 40 39 38 37 36 35 35 34 34 33 33 32 32 31 31 30 29 29 28 27 27 26 25 25 24 24 23 22 22 22 22 22 22 22 22 22 22 21 21 20 20 20 19 19 19 18 18 17 17 15 14 12 11 10 10 11 12 13 14 14 14 13 11 9 8 7 7 7 7 7 7 7
51 50 49 48 48 47 45 44 43 42 42 41 40 39 39 38 37 36 35 34 34 33 33 32 31 31 30 30 29 29 28 27 27 26 26 25 24 24 23 23 22 21 21 20 20 20 21 21 21 21 21 21 20 20 19 19 19 19 18 18 18 17 17 16 15 13 11 10 10 10 12 13 14 14 14 14 12 10 9 8 8 8 7 8 8 8
50 49 48 47 46 45 44 43 42 41 40 40 39 38 37 36 35 35 34 33 33 32 31 31 30 30 29 29 28 27 27 26 26 25 24 24 23 23 22 22 21 21 20 20 19 19 19 19 20 20 20 20 20 20 19 19 19 18 18 18 18 17 17 16 15 14 12 11 10 10 11 12 13 14 15 14 13 12 9 8 8 8 8 8 8 8
Wind_Direction
297 297 297 297 297 297 297 297 297 297 297 297 297 297 297 297 297 297 297 297 297 297 296 296 296 296 295 295 294 294 294 293 293 292 292 291 291 290 290 289 289 288 288 287 287 286 286 286 285 285 285 284 284 284 284 284 283 283 283 283 282 282 282 282 281 281 281 280 280 280 279 279 278 278 277 277 276 275 275 274 274 273 272 272 271 271
297 297 297 297 297 297 297 297 297 297 297 297 297 297 297 297 297 297 297 297 297 297 296 296 296 295 295 294 294 294 293 293 292 292 291 291 290 290 289 289 288 288 288 287 287 286 286 285 285 285 285 284 284 284 284 284 284 283 283 283 283 283 282 282 282 282 281 281 280 280 279 279 278 278 277 277 276 276 275 274 274 273 273 272 271 271
298 298 298 298 298 298 297 297 297 297 297 297 297 297 297 297 297 297 297 297 296 296 296 296 295 295 294 294 294 293 293 292 292 291 291 290 290 289 289 288 288 287 287 287 286 286 286 285 285 285 285 284 284 284 284 284 284 284 283 283 283 283 283 282 282 282 281 281 280 280 279 279 278 278 277 277 276 276 275 275 274 274 273 272 272 271
298 298 298 298 298 298 298 298 297 297 297 297 297 297 297 297 297 297 296 296 296 296 295 295 295 294 294 293 293 293 292 291 291 290 290 289 289 288 288 288 287 287 287 286 286 286 285 285 285 285 285 284 284 284 284 284 284 284 284 283 283 283 283 282 282 282 281 281 280 279 279 278 278 277 277 277 277 276 276 275 275 274 274 273 272 272
298 298 298 298 298 298 298 297 297 297 297 297 297 297 297 297 296 296 296 296 295 295 295 294 294 294 293 293 292 292 291 291 290 290 289 289 288 288 288 287 287 287 286 286 286 286 285 285 285 285 285 285 285 284 284 284 284 284 284 284 284 283 283 282 282 281 281 280 280 279 278 278 277 277 277 277 276 276 276 276 275 275 274 274 273 272
299 298 298 298 298 298 298 298 297 297 297 297 297 297 296 296 296 296 296 295 295 294 294 294 293 293 292 292 291 291 291 290 290 289 289 289 288 288 288 287 287 287 286 286 286 285 285 285 285 285 285 285 285 285 285 285 285 285 284 284 284 283 283 282 282 281 281 280 279 279 278 277 277 277 277 277 277 276 276 276 276 275 275 274 273 273
299 298 299 298 298 298 298 297 297 297 297 297 297 296 296 296 296 295 295 295 294 294 293 293 293 292 292 291 291 291 290 290 290 289 289 289 288 288 288 288 287 287 286 286 286 286 286 286 286 286 286 286 286 286 286 285 285 285 284 284 284 283 283 282 282 281 281 280 279 279 278 278 278 277 277 277 277 277 276 276 276 275 274 274 273 272
299 299 299 299 298 298 298 297 297 297 297 296 296 296 296 295 295 295 294 294 294 293 293 293 292 292 291 291 291 291 290 290 290 290 289 289 289 289 288 288 288 287 287 287 286 286 286 286 286 286 286 286 286 286 286 286 285 285 285 284 284 283 283 282 282 281 281 280 280 279 279 279 279 279 278 278 277 277 276 276 275 275 274 273 273 272
299 299 299 299 299 298 298 297 297 297 297 296 296 296 295 295 295 294 294 294 293 293 293 293 292 292 292 291 291 291 291 291 291 290 290 290 290 289 289 289 288 288 288 288 288 287 287 287 287 287 287 287 287 286 286 286 286 285 285 284 284 284 283 282 282 281 281 281 281 281 281 280 280 279 279 278 277 276 276 275 275 274 274 273 272 272
300 300 300 299 299 298 298 298 297 297 297 296 296 296 295 295 295 295 294 294 294 293 293 293 293 293 292 292 292 292 291 291 291 291 291 290 290 290 290 289 289 289 289 289 289 289 288 288 288 288 287 287 287 287 286 286 286 285 285 285 284 283 283 282 282 282 282 282 282 282 282 281 280 280 279 278 277 276 276 275 275 274 274 273 272 272
301 300 300 300 299 299 298 298 297 297 297 297 296 296 296 295 295 295 295 295 294 294 294 294 294 293 293 293 293 292 292 292 292 291 291 291 291 291 290 290 290 290 290 290 289 289 289 288 288 288 288 288 287 287 287 287 286 285 285 284 283 283 283 283 283 283 283 283 283 282 282 281 280 280 279 278 278 277 276 276 275 274 274 273 273 272
301 301 300 300 300 299 299 298 298 298 298 297 297 297 297 296 296 296 296 296 296 295 295 295 295 294 294 294 293 293 293 292 292 292 292 291 291 291 291 291 291 291 290 290 290 289 289 289 289 289 288 288 288 287 287 286 286 285 284 284 283 284 284 284 284 284 284 283 283 282 281 281 280 280 279 278 278 277 277 276 275 275 274 273 273 272
301 301 301 300 300 300 299 299 299 298 298 298 298 298 298 298 298 297 297 297 297 296 296 296 295 295 294 294 294 293 293 293 292 292 292 292 292 291 291 291 291 291 290 290 290 289 289 289 290 289 289 289 288 287 287 286 285 284 284 284 284 285 285 285 285 284 284 283 282 282 281 281 280 280 279 279 278 277 277 276 276 275 274 273 273 272
302 301 301 301 300 300 300 299 299 299 299 298 298 298 298 298 298 298 298 298 297 297 296 296 296 295 295 294 294 293 293 293 293 293 292 292 292 291 291 291 291 290 290 290 290 290 290 290 290 290 289 289 288 287 286 285 285 285 285 285 286 286 286 285 285 284 284 283 282 282 281 281 280 280 279 279 278 278 277 276 276 275 274 274 273 272
302 301 301 301 300 300 300 300 299 299 299 299 299 299 299 299 299 299 299 298 298 297 297 296 296 295 295 294 294 293 293 293 293 293 293 292 292 291 291 290 290 290 290 290 290 290 291 291 290 290 289 288 288 287 286 286 286 286 286 286 286 286 286 285 285 284 283 283 282 282 281 281 280 280 279 279 278 278 277 277 276 275 275 274 273 272
302 301 301 301 300 300 300 300 300 300 300 300 300 300 300 300 300 300 299 298 298 297 297 296 296 295 295 294 294 294 294 294 294 294 293 293 292 291 291 290 290 290 290 290 291 291 291 291 290 290 289 288 288 287 287 287 287 287 287 287 287 286 286 285 284 284 283 283 282 282 282 281 280 280 279 279 278 278 277 277 276 275 275 274 273 272
301 301 301 301 301 301 301 300 300 300 300 301 301 301 301 301 300 300 299 298 298 297 297 296 296 295 295 295 295 295 295 295 294 294 293 293 292 291 291 291 291 291 291 291 291 291 291 291 290 290 289 288 288 288 288 288 288 288 287 287 287 286 286 285 284 284 283 283 283 282 282 281 281 280 280 279 278 278 277 277 276 275 275 274 273 272
302 302 302 302 301 301 301 301 301 301 301 302 302 302 301 301 300 299 299 298 298 297 297 297 296 296 296 295 295 295 295 295 295 294 294 293 292 291 291 291 292 292 292 292 292 291 291 291 290 290 289 289 289 288 288 288 288 288 288 287 287 286 286 285 285 284 284 283 283 282 282 281 281 280 280 279 279 278 277 277 276 276 275 274 273 272
303 303 303 303 302 302 302 302 302 302 302 302 302 302 301 301 300 299 299 298 298 298 297 297 297 297 296 296 296 296 296 296 295 295 294 293 292 292 292 292 293 293 292 292 292 292 292 291 291 290 290 289 289 289 289 289 289 288 288 288 287 286 286 285 285 284 284 283 283 282 282 281 281 280 280 280 279 279 278 277 276 276 275 274 273 273
304 304 304 303 303 303 303 303 303 303 303 303 302 302 301 301 300 299 299 299 299 298 298 298 298 298 297 297 297 297 296 296 296 295 295 293 293 293 293 294 294 293 293 293 293 293 292 292 291 291 290 290 290 290 290 290 289 289 289 288 287 287 286 285 285 284 284 283 283 282 282 281 281 281 280 280 279 279 278 277 277 276 275 275 274 273
305 305 304 304 304 304 304 304 303 304 303 303 303 302 301 301 300 300 300 300 299 299 299 299 299 299 298 298 298 297 297 297 297 296 295 294 294 294 294 294 294 294 293 294 294 294 293 292 292 291 291 290 290 290 290 290 290 289 289 289 288 287 286 286 285 284 284 283 283 283 282 282 282 281 281 280 280 279 278 278 277 276 276 275 274 273
305 305 305 305 305 304 304 304 304 304 304 303 303 302 302 301 301 301 301 301 301 301 301 301 300 300 299 299 299 298 298 298 297 296 296 295 295 295 295 295 294 294 294 294 295 294 293 292 292 291 291 291 291 291 291 291 291 290 290 289 288 287 286 286 285 285 284 284 283 283 283 282 282 282 281 280 280 279 279 278 277 276 276 275 274 273
305 305 305 305 305 305 305 305 304 304 304 303 303 303 302 302 302 302 302 302 302 302 302 302 301 301 300 300 300 299 299 299 298 297 296 296 296 296 296 295 295 295 295 295 295 294 293 293 292 292 292 292 292 292 292 292 291 291 290 289 288 287 286 286 285 285 285 284 284 284 283 283 282 282 281 281 280 280 279 278 278 277 276 275 274 274
306 306 306 306 306 306 305 305 305 305 304 304 304 303 303 304 304 303 303 303 303 303 303 302 302 301 301 300 300 300 300 299 298 297 297 296 296 296 296 296 296 296 296 296 295 295 294 293 293 292 292 293 293 293 293 292 291 291 289 288 288 287 287 286 286 286 285 285 285 284 284 283 283 282 282 281 281 280 279 279 278 277 276 275 275 273
306 306 306 306 306 306 306 306 305 305 305 305 305 305 305 305 305 304 304 304 304 304 304 303 302 301 301 301 301 301 300 300 299 298 297 297 297 297 297 297 297 297 297 296 296 295 294 293 293 293 293 293 294 294 293 292 291 290 289 288 288 288 288 287 287 286 286 285 285 284 284 284 283 283 282 282 281 281 280 279 278 278 277 276 275 274
306 306 307 307 307 307 306 306 306 306 305 305 305 306 306 306 305 305 305 305 305 305 304 303 302 302 302 302 302 301 301 300 299 298 298 298 298 297 297 297 297 297 297 296 296 295 294 294 294 294 294 294 294 294 293 293 291 290 290 289 289 289 288 288 287 287 286 286 286 285 285 284 284 283 283 282 282 281 281 280 279 278 277 276 275 274
307 307 307 307 307 307 307 306 306 306 306 306 306 306 306 306 306 305 305 306 306 305 304 303 303 302 302 302 302 301 301 300 299 299 299 299 299 298 298 298 298 298 297 297 296 296 295 295 295 295 295 295 295 295 294 293 292 291 291 290 290 290 289 289 288 288 287 287 286 286 285 285 285 284 284 283 283 282 281 281 280 279 278 277 276 275
308 308 308 308 308 308 307 307 306 306 306 307 307 307 307 306 306 306 306 306 306 305 304 303 303 303 303 303 302 302 301 301 300 300 300 300 299 299 299 299 298 298 298 297 297 296 296 296 296 296 296 296 296 295 294 294 293 292 292 292 291 291 290 290 289 288 288 287 287 286 286 286 285 285 284 284 283 283 282 281 281 280 279 278 277 276
308 308 309 308 308 308 307 307 307 307 307 307 307 307 307 306 306 306 307 306 305 305 304 304 303 304 303 303 303 302 302 301 301 301 301 300 300 300 299 299 299 299 298 298 298 297 297 297 297 297 297 297 297 296 295 294 294 294 293 293 292 292 291 291 290 289 289 288 288 287 287 286 286 285 285 284 284 283 283 282 281 281 280 279 278 277
309 309 309 309 308 308 307 307 307 307 307 308 307 307 306 306 306 307 307 306 305 304 304 304 304 304 304 303 303 302 302 301 301 301 301 301 300 300 300 300 299 299 299 299 299 298 298 298 298 298 298 298 297 296 296 295 295 294 294 293 293 292 292 291 290 290 289 289 288 287 287 287 286 286 285 285 284 284 283 282 282 281 281 280 279 278
309 309 309 309 308 308 307 307 307 307 308 308 307 307 306 306 307 307 307 306 305 305 305 305 305 304 304 304 303 303 302 302 302 302 302 301 301 301 300 300 300 300 300 300 299 299 299 298 299 299 299 298 298 297 296 296 296 295 295 294 294 293 293 292 291 290 289 289 289 288 288 287 287 287 286 285 285 284 284 283 282 281 281 280 279 278
309 309 309 309 308 307 307 307 307 308 308 307 307 306 306 307 307 307 307 306 306 305 305 305 305 305 304 304 304 303 303 302 302 302 302 302 301 301 301 301 301 301 300 300 300 299 299 299 299 299 299 299 298 298 297 297 296 296 295 295 294 294 293 292 291 291 290 289 289 288 288 288 288 287 287 286 286 285 284 283 282 281 280 279 278 277
309 309 309 308 307 307 307 307 308 308 308 307 307 306 307 307 307 307 307 306 306 306 306 306 305 305 305 304 304 303 303 303 303 303 302 302 302 302 302 301 301 301 301 301 300 300 300 299 299 300 299 299 298 298 298 297 297 297 296 295 295 294 293 293 292 291 290 290 289 289 289 289 289 288 288 288 287 286 285 284 282 281 280 279 277 275
309 309 308 308 307 307 307 307 308 308 307 307 306 306 307 307 308 307 307 306 306 306 306 306 306 305 305 305 304 304 303 303 303 303 303 303 302 302 302 302 302 302 302 301 301 301 300 300 300 300 300 299 299 299 298 298 297 297 297 296 295 294 294 293 292 291 291 291 290 290 290 290 290 289 289 288 287 286 285 284 283 282 280 278 276 274
309 308 308 307 307 307 307 307 308 307 307 306 306 307 307 307 307 307 307 306 306 306 306 306 306 305 305 305 305 304 304 304 303 303 303 303 303 303 302 302 302 302 302 302 301 301 301 301 300 300 300 300 299 299 299 298 298 297 297 296 295 295 294 293 293 292 292 291 291 291 291 290 290 290 290 288 287 286 285 284 283 282 279 278 275 273
308 308 307 307 307 307 307 307 307 307 306 306 306 307 307 307 307 307 307 306 306 306 306 306 306 305 305 305 305 304 304 304 304 304 304 304 303 303 303 303 303 303 302 302 302 302 302 302 301 301 301 300 300 300 299 298 298 298 297 297 296 295 295 294 294 293 292 292 292 292 292 291 291 290 290 288 287 286 285 284 283 281 279 277 275 272
308 307 307 306 306 307 307 307 307 306 306 306 306 307 307 307 307 307 306 306 306 306 306 306 306 305 305 305 305 305 304 304 304 304 304 304 304 304 303 303 303 303 303 303 303 303 302 302 302 302 301 301 300 300 299 299 299 298 298 297 297 296 295 295 294 294 293 293 293 293 293 292 292 291 290 288 287 286 285 284 282 280 278 276 274 271
308 307 306 306 306 307 307 307 306 306 306 306 306 307 307 307 307 306 306 306 307 306 306 306 306 305 305 305 305 305 305 304 304 304 304 304 304 304 304 303 303 303 303 303 303 303 303 303 303 302 302 301 301 300 299 299 299 299 298 298 297 296 296 295 295 294 294 294 294 293 293 293 293 292 290 288 287 286 285 283 282 279 277 274 272 269
307 307 306 306 307 307 307 306 306 305 306 306 306 306 307 307 306 306 306 306 307 307 306 306 306 306 306 305 305 305 305 304 304 304 304 304 304 304 304 304 304 304 304 304 304 304 303 303 303 302 302 301 301 300 300 300 299 298 298 298 297 296 296 295 295 294 294 294 294 294 294 294 293 292 290 289 287 285 283 282 280 277 275 272 270 267
307 307 307 307 307 307 306 306 305 305 306 306 306 306 306 306 307 307 307 307 307 306 306 306 306 306 305 305 305 305 305 304 304 304 304 304 304 304 304 304 304 304 304 304 304 304 304 303 303 303 302 302 301 301 300 300 299 298 298 297 296 295 295 295 294 294 294 294 294 294 294 294 293 292 291 288 286 284 282 279 276 275 272 269 267 265
307 307 307 307 307 307 306 306 305 306 306 306 307 307 306 306 306 307 307 307 306 306 306 306 306 305 305 305 305 305 305 304 304 304 304 304 304 304 304 304 304 305 305 305 304 304 304 304 303 303 302 302 302 301 301 300 300 298 297 295 294 293 293 293 293 293 293 293 294 294 294 293 293 292 289 287 285 282 278 275 273 271 268 265 263 260
307 307 307 307 307 306 306 306 306 306 306 307 307 307 306 306 307 307 307 307 307 306 306 306 306 306 305 305 305 305 304 304 304 304 304 305 305 305 305 305 305 305 305 305 305 304 304 304 303 303 302 302 302 302 301 301 300 298 297 295 293 292 291 291 291 291 292 292 293 293 293 292 291 290 288 285 282 278 275 271 268 265 263 260 258 256
308 307 307 307 307 306 306 306 306 306 307 307 307 307 306 306 307 307 307 307 306 306 306 306 306 305 305 305 305 305 304 304 304 305 305 305 305 305 305 305 305 305 305 305 305 304 304 304 303 303 302 302 302 302 301 301 300 299 297 295 292 290 288 288 288 289 289 290 291 291 291 290 289 288 285 282 277 273 270 266 263 260 256 254 252 249
308 308 307 307 307 306 306 306 307 307 307 307 307 307 306 306 307 307 307 307 306 306 306 306 306 305 305 305 305 305 305 305 305 305 305 305 305 306 306 306 305 305 305 305 305 305 304 304 304 303 303 302 302 302 301 301 300 299 298 296 293 290 287 285 285 286 286 287 288 288 288 288 286 285 283 278 273 268 264 260 257 254 249 247 242 239
308 307 307 307 307 306 306 307 307 307 307 307 307 306 306 306 307 307 307 306 306 306 306 305 305 305 305 305 305 305 304 305 305 305 305 306 306 305 306 306 306 306 305 306 305 305 305 305 304 304 303 303 302 302 301 301 301 300 298 297 294 292 288 286 284 283 282 283 283 284 284 284 283 282 279 275 268 262 257 254 250 246 242 237 232 228
308 307 307 307 307 306 307 307 307 307 307 307 307 306 306 306 307 307 307 306 306 306 305 305 305 305 305 305 305 305 305 305 305 305 305 306 306 306 306 306 306 306 306 306 305 305 305 305 304 304 304 303 303 302 302 301 300 300 299 298 296 294 291 287 283 281 278 278 278 278 279 279 279 278 275 271 264 257 252 247 242 237 231 226 220 216
307 307 307 307 306 306 307 307 307 307 307 307 306 306 306 306 307 307 307 306 306 305 305 305 305 305 305 305 305 305 305 305 305 305 306 306 306 306 306 306 306 306 306 305 306 306 305 305 305 304 304 303 303 302 302 301 300 299 299 298 296 295 293 289 285 280 277 273 272 272 272 274 274 274 272 268 262 254 247 241 235 229 223 216 211 207
307 307 307 306 306 306 306 307 307 307 307 307 306 306 306 307 307 307 306 306 306 305 305 305 305 305 305 305 305 305 305 305 305 306 306 306 306 306 306 306 306 306 306 306 306 305 305 305 304 303 303 302 302 301 301 300 299 298 297 296 295 295 293 291 287 282 275 270 266 264 265 266 268 269 269 266 260 251 241 234 227 221 214 209 203 200
307 307 306 306 306 306 306 307 307 307 307 306 306 306 306 306 307 307 306 306 306 305 305 305 305 305 305 305 305 305 305 306 306 306 306 306 306 306 306 306 306 306 306 306 306 305 304 304 303 303 302 301 301 300 299 299 298 297 296 295 294 293 292 291 287 283 277 268 262 258 258 259 261 263 264 263 258 249 237 228 221 213 207 202 197 194
306 306 306 306 306 306 307 307 307 307 306 306 306 306 306 307 306 306 306 305 305 305 305 305 305 305 305 305 305 305 306 306 306 306 306 306 306 306 306 306 306 306 306 305 305 304 303 302 302 302 301 301 301 300 299 298 297 296 295 294 292 292 291 289 287 284 277 269 259 253 250 251 253 256 258 258 256 249 236 223 213 207 200 196 193 191
306 306 306 306 306 306 307 307 307 307 307 306 306 306 306 306 306 306 305 305 305 305 305 305 305 305 305 305 305 305 306 306 307 306 306 306 306 306 306 307 307 306 306 305 304 303 301 300 300 300 300 300 300 300 298 298 296 296 294 293 291 290 289 288 285 282 277 269 259 249 244 243 246 249 252 254 253 248 237 222 209 200 195 190 188 188
Height
10407 10405 10402 10398 10395 10392 10387 10383 10381 10377 10373 10370 10367 10365 10362 10358 10355 10352 10349 10347 10343 10340 10337 10333 10330 10327 10323 10320 10317 10313 10311 10308 10305 10302 10298 10295 10292 10289 10286 10283 10280 10276 10273 10270 10267 10263 10261 10258 10255 10253 10251 10248 10247 10245 10243 10242 10240 10238 10237 10235 10235 10233 10233 10232 10231 10230 10230 10228 10227 10226 10224 10223 10221 10219 10218 10217 10216 10215 10215 10215 10215 10215 10216 10216 10216 10216
10400 10398 10395 10392 10389 10385 10380 10377 10374 10371 10368 10364 10361 10358 10355 10352 10348 10345 10342 10339 10336 10333 10329 10326 10322 10318 10315 10311 10308 10305 10302 10298 10295 10292 10288 10285 10282 10278 10275 10272 10269 10265 10262 10258 10255 10252 10249 10247 10244 10242 10240 10237 10235 10233 10232 10230 10228 10227 10225 10224 10223 10222 10221 10220 10219 10218 10217 10217 10215 10214 10212 10211 10208 10206 10205 10203 10203 10202 10203 10203 10203 10203 10203 10203 10203 10203
10393 10390 10388 10385 10382 10378 10373 10370 10366 10363 10361 10358 10355 10352 10349 10345 10342 10338 10335 10332 10328 10325 10321 10318 10314 10310 10307 10302 10299 10296 10292 10288 10285 10282 10278 10275 10272 10268 10265 10262 10258 10255 10251 10247 10244 10241 10238 10235 10233 10230 10228 10227 10224 10222 10220 10218 10217 10215 10214 10213 10212 10210 10210 10208 10208 10207 10205 10204 10203 10202 10200 10199 10197 10194 10192 10191 10190 10190 10190 10190 10190 10190 10191 10191 10191 10191
10387 10383 10380 10378 10375 10371 10367 10363 10359 10356 10353 10351 10348 10345 10342 10338 10335 10332 10328 10325 10322 10317 10313 10310 10307 10303 10298 10294 10290 10287 10283 10279 10275 10272 10268 10265 10261 10258 10255 10251 10248 10244 10240 10237 10233 10230 10227 10223 10221 10219 10217 10215 10213 10212 10210 10208 10207 10205 10204 10202 10201 10200 10198 10197 10197 10195 10193 10192 10191 10190 10188 10187 10185 10183 10180 10179 10178 10178 10178 10178 10178 10179 10179 10179 10180 10180
10380 10377 10373 10370 10367 10363 10359 10355 10352 10348 10345 10343 10340 10337 10334 10331 10328 10325 10322 10318 10314 10310 10306 10302 10298 10295 10290 10285 10281 10277 10273 10269 10265 10261 10257 10254 10250 10247 10243 10240 10237 10233 10230 10226 10222 10218 10215 10212 10210 10208 10206 10205 10203 10201 10199 10198 10196 10195 10193 10192 10190 10188 10187 10186 10185 10183 10182 10181 10180 10178 10177 10175 10173 10172 10170 10168 10168 10167 10167 10167 10167 10168 10168 10168 10168 10170
10373 10370 10367 10363 10360 10357 10352 10348 10344 10341 10338 10335 10333 10330 10327 10323 10320 10317 10313 10310 10307 10302 10298 10294 10290 10286 10282 10277 10272 10268 10263 10259 10255 10250 10246 10242 10239 10236 10232 10229 10225 10222 10218 10215 10211 10208 10205 10202 10200 10198 10196 10194 10192 10191 10189 10187 10185 10184 10182 10180 10179 10177 10175 10174 10173 10172 10170 10169 10168 10166 10165 10163 10162 10161 10160 10159 10158 10158 10157 10157 10157 10157 10157 10158 10158 10158
10365 10362 10360 10357 10352 10348 10345 10341 10337 10333 10331 10328 10325 10322 10320 10317 10313 10310 10306 10302 10298 10294 10290 10285 10282 10277 10273 10268 10263 10258 10253 10248 10244 10240 10235 10231 10227 10224 10221 10218 10214 10210 10207 10203 10200 10197 10195 10192 10190 10188 10186 10184 10182 10180 10178 10177 10175 10173 10171 10169 10168 10166 10164 10163 10161 10160 10158 10157 10155 10153 10153 10152 10152 10152 10151 10150 10150 10148 10147 10147 10147 10147 10147 10147 10147 10148
10357 10354 10352 10349 10345 10341 10337 10333 10330 10327 10323 10320 10317 10314 10311 10308 10305 10302 10298 10294 10289 10285 10281 10277 10272 10267 10263 10258 10253 10248 10243 10238 10233 10229 10224 10220 10216 10212 10209 10206 10202 10198 10195 10192 10189 10187 10185 10182 10180 10179 10177 10175 10173 10170 10168 10167 10164 10162 10160 10158 10157 10155 10153 10152 10150 10148 10146 10145 10143 10143 10142 10142 10142 10142 10142 10142 10140 10139 10138 10137 10137 10136 10137 10137 10137 10137
10350 10347 10343 10340 10337 10333 10328 10323 10320 10318 10316 10312 10308 10305 10302 10299 10296 10292 10289 10285 10281 10276 10272 10267 10262 10256 10251 10247 10243 10238 10233 10228 10222 10217 10213 10209 10205 10200 10197 10194 10191 10187 10183 10181 10178 10177 10175 10173 10171 10169 10167 10165 10163 10160 10158 10156 10154 10152 10150 10148 10146 10144 10142 10140 10138 10137 10135 10135 10134 10133 10133 10133 10133 10132 10132 10132 10130 10130 10128 10127 10126 10126 10126 10126 10126 10127
10342 10339 10335 10331 10327 10324 10320 10315 10310 10307 10305 10303 10299 10296 10293 10290 10287 10282 10278 10274 10270 10267 10263 10257 10252 10246 10240 10235 10230 10227 10223 10219 10213 10208 10202 10198 10193 10189 10185 10182 10179 10177 10173 10170 10168 10166 10164 10162 10161 10159 10157 10155 10153 10151 10148 10147 10144 10142 10140 10138 10135 10133 10131 10130 10128 10127 10127 10126 10126 10125 10125 10123 10123 10122 10121 10121 10120 10119 10119 10118 10117 10117 10117 10117 10117 10117
10333 10330 10326 10322 10317 10313 10310 10306 10302 10298 10295 10292 10288 10284 10282 10280 10277 10274 10268 10263 10258 10255 10252 10247 10241 10235 10230 10225 10219 10214 10211 10208 10204 10198 10193 10188 10183 10178 10175 10171 10168 10166 10163 10160 10158 10155 10153 10152 10151 10150 10148 10146 10144 10142 10139 10137 10135 10132 10129 10127 10125 10123 10122 10120 10120 10120 10119 10118 10117 10116 10115 10114 10113 10112 10111 10111 10110 10110 10110 10108 10108 10108 10108 10108 10108 10108
10323 10320 10317 10312 10307 10303 10299 10295 10292 10288 10285 10282 10278 10273 10269 10267 10265 10263 10259 10253 10247 10243 10240 10235 10229 10224 10220 10215 10210 10204 10200 10197 10193 10189 10184 10179 10174 10169 10165 10161 10158 10156 10153 10150 10147 10145 10143 10142 10141 10140 10139 10138 10135 10133 10130 10127 10125 10122 10119 10117 10115 10114 10113 10113 10113 10112 10111 10110 10108 10107 10106 10105 10104 10103 10102 10102 10102 10101 10100 10100 10100 10100 10100 10100 10100 10100
10315 10311 10307 10302 10297 10293 10288 10285 10281 10277 10273 10271 10268 10264 10260 10255 10253 10250 10247 10242 10237 10232 10229 10225 10219 10213 10208 10205 10200 10195 10190 10186 10183 10180 10176 10171 10165 10160 10156 10152 10149 10146 10143 10140 10137 10135 10133 10133 10132 10132 10130 10128 10127 10123 10121 10118 10115 10112 10110 10108 10108 10107 10107 10107 10105 10104 10103 10102 10100 10099 10098 10097 10096 10095 10095 10094 10093 10093 10093 10092 10092 10092 10092 10092 10092 10092
10305 10302 10297 10292 10288 10283 10279 10275 10271 10267 10263 10260 10258 10255 10251 10247 10243 10240 10236 10231 10225 10221 10218 10215 10210 10204 10199 10195 10190 10186 10181 10177 10174 10172 10168 10162 10157 10152 10147 10143 10140 10137 10135 10132 10128 10127 10126 10125 10124 10123 10122 10119 10117 10114 10112 10109 10107 10105 10103 10102 10102 10101 10100 10099 10098 10097 10095 10093 10092 10092 10090 10089 10088 10088 10087 10086 10086 10085 10085 10085 10084 10084 10084 10084 10084 10084
10297 10293 10288 10283 10278 10274 10270 10266 10262 10258 10253 10250 10248 10245 10242 10237 10233 10229 10225 10220 10215 10210 10207 10203 10199 10195 10190 10185 10180 10177 10172 10168 10165 10163 10159 10153 10147 10142 10138 10135 10132 10129 10127 10124 10122 10120 10119 10118 10116 10114 10112 10110 10107 10105 10103 10101 10099 10098 10097 10097 10095 10095 10093 10092 10090 10089 10087 10086 10085 10084 10083 10082 10081 10080 10080 10079 10079 10078 10078 10078 10077 10077 10077 10077 10077 10077
10289 10285 10280 10275 10270 10265 10261 10257 10253 10248 10244 10241 10238 10235 10232 10228 10223 10218 10214 10209 10205 10200 10197 10193 10189 10184 10179 10175 10171 10168 10164 10160 10157 10154 10150 10144 10138 10133 10129 10127 10123 10122 10120 10118 10115 10114 10113 10111 10108 10106 10104 10102 10099 10097 10096 10094 10093 10092 10092 10090 10089 10088 10087 10085 10083 10082 10080 10079 10078 10077 10077 10075 10075 10073 10073 10073 10072 10072 10072 10071 10071 10071 10070 10070 10070 10070
10280 10276 10271 10266 10261 10256 10252 10247 10243 10238 10235 10232 10230 10227 10223 10218 10214 10209 10205 10199 10195 10190 10187 10183 10179 10175 10170 10165 10162 10158 10156 10152 10148 10145 10142 10135 10128 10123 10121 10118 10117 10115 10113 10111 10109 10108 10106 10103 10101 10099 10097 10094 10092 10090 10089 10088 10087 10087 10085 10084 10083 10082 10080 10078 10077 10075 10074 10073 10072 10071 10070 10069 10068 10067 10067 10066 10066 10065 10065 10065 10065 10065 10064 10064 10063 10063
10271 10267 10262 10257 10252 10247 10242 10238 10233 10229 10226 10223 10220 10217 10213 10209 10205 10200 10195 10190 10186 10182 10177 10173 10169 10165 10161 10157 10152 10149 10147 10144 10140 10136 10132 10126 10120 10115 10113 10112 10111 10109 10107 10105 10103 10102 10100 10097 10095 10092 10090 10088 10086 10085 10083 10083 10082 10080 10080 10078 10077 10075 10073 10072 10071 10070 10068 10067 10066 10065 10064 10063 10062 10062 10061 10060 10060 10060 10060 10059 10058 10058 10058 10058 10058 10058
10260 10256 10252 10247 10242 10237 10232 10228 10224 10221 10217 10213 10210 10207 10203 10199 10195 10190 10186 10181 10177 10173 10168 10163 10160 10155 10152 10148 10144 10141 10139 10136 10132 10128 10123 10117 10112 10108 10107 10107 10105 10103 10100 10098 10097 10095 10093 10091 10088 10086 10083 10082 10080 10079 10078 10077 10076 10075 10073 10072 10071 10069 10068 10066 10065 10063 10062 10062 10060 10059 10058 10057 10057 10056 10055 10055 10055 10054 10054 10053 10053 10053 10053 10052 10052 10052
10249 10245 10241 10237 10233 10227 10222 10217 10214 10211 10208 10205 10202 10198 10193 10189 10185 10181 10177 10172 10168 10163 10159 10155 10151 10147 10143 10140 10136 10133 10131 10128 10125 10120 10115 10109 10105 10102 10102 10101 10098 10096 10093 10092 10091 10090 10087 10085 10082 10080 10078 10076 10075 10073 10072 10072 10070 10069 10068 10067 10065 10063 10062 10060 10059 10058 10057 10056 10055 10054 10053 10052 10052 10051 10050 10050 10050 10049 10048 10048 10048 10048 10047 10047 10047 10047
10238 10233 10229 10226 10223 10218 10213 10208 10204 10201 10198 10196 10192 10188 10183 10180 10176 10172 10167 10163 10159 10155 10150 10147 10142 10138 10135 10131 10128 10125 10123 10120 10117 10112 10107 10102 10098 10096 10096 10095 10092 10090 10088 10087 10085 10084 10082 10078 10076 10074 10072 10071 10070 10068 10067 10067 10065 10064 10063 10061 10060 10058 10057 10055 10054 10053 10052 10051 10050 10049 10048 10047 10047 10046 10046 10045 10045 10044 10043 10043 10043 10043 10042 10042 10042 10042
10229 10224 10219 10215 10212 10208 10204 10200 10195 10192 10189 10186 10183 10178 10174 10170 10166 10162 10157 10154 10150 10146 10142 10138 10133 10129 10126 10123 10120 10118 10116 10113 10110 10105 10100 10096 10092 10091 10090 10088 10087 10084 10083 10082 10080 10078 10075 10073 10070 10068 10067 10066 10065 10063 10063 10062 10060 10059 10058 10056 10054 10053 10052 10050 10049 10048 10047 10046 10045 10045 10043 10043 10043 10042 10041 10041 10040 10040 10039 10038 10038 10038 10038 10038 10037 10037
10220 10215 10210 10207 10202 10198 10195 10190 10187 10183 10179 10177 10173 10170 10165 10161 10157 10152 10148 10145 10141 10138 10134 10130 10125 10121 10118 10115 10113 10111 10109 10107 10103 10098 10095 10090 10087 10085 10084 10083 10081 10079 10078 10077 10075 10072 10070 10067 10065 10063 10062 10061 10060 10059 10058 10057 10056 10054 10052 10051 10049 10048 10047 10045 10045 10043 10043 10042 10041 10040 10040 10039 10038 10038 10037 10037 10036 10035 10035 10035 10034 10034 10033 10033 10033 10033
10210 10206 10202 10197 10193 10189 10185 10181 10177 10173 10169 10166 10163 10159 10156 10152 10148 10144 10140 10136 10133 10130 10127 10122 10118 10113 10110 10108 10106 10104 10102 10100 10096 10092 10088 10085 10083 10080 10078 10077 10075 10074 10073 10072 10070 10067 10064 10062 10060 10059 10058 10057 10056 10055 10054 10053 10051 10050 10048 10046 10045 10043 10042 10042 10040 10040 10038 10038 10037 10036 10035 10035 10034 10033 10033 10032 10032 10031 10031 10030 10030 10030 10030 10029 10029 10028
10201 10197 10193 10189 10185 10180 10175 10171 10167 10163 10160 10157 10153 10150 10147 10143 10139 10135 10132 10128 10126 10123 10119 10115 10111 10107 10104 10102 10100 10098 10095 10093 10090 10086 10083 10080 10078 10075 10073 10072 10071 10069 10067 10066 10064 10062 10059 10057 10055 10055 10053 10053 10052 10051 10050 10048 10047 10045 10043 10042 10040 10040 10038 10038 10037 10035 10035 10033 10033 10032 10032 10031 10030 10030 10029 10028 10028 10027 10027 10027 10027 10026 10026 10025 10025 10025
10192 10189 10185 10181 10176 10172 10167 10162 10158 10154 10151 10147 10144 10141 10138 10135 10130 10127 10123 10121 10118 10115 10112 10108 10104 10101 10098 10096 10093 10092 10089 10087 10083 10081 10078 10075 10073 10070 10068 10068 10066 10065 10063 10061 10059 10057 10055 10053 10052 10050 10050 10048 10048 10047 10045 10043 10042 10040 10039 10038 10037 10036 10035 10034 10033 10032 10031 10030 10029 10028 10028 10027 10027 10026 10025 10025 10024 10024 10023 10023 10023 10023 10022 10022 10022 10022
10183 10180 10177 10172 10168 10163 10158 10154 10150 10146 10142 10139 10136 10133 10130 10127 10123 10120 10117 10115 10112 10108 10105 10101 10098 10095 10093 10090 10088 10086 10083 10080 10078 10075 10073 10071 10068 10066 10064 10063 10062 10060 10058 10057 10055 10052 10050 10048 10047 10047 10046 10045 10044 10042 10041 10039 10038 10037 10035 10034 10033 10032 10031 10030 10029 10028 10027 10026 10025 10025 10024 10023 10023 10023 10022 10022 10021 10020 10020 10020 10020 10019 10019 10018 10018 10018
10175 10172 10168 10163 10159 10155 10150 10145 10142 10138 10135 10132 10128 10125 10122 10119 10116 10113 10110 10108 10105 10102 10098 10095 10093 10090 10087 10085 10082 10080 10078 10075 10072 10070 10068 10067 10064 10062 10060 10058 10057 10055 10054 10052 10050 10048 10046 10045 10043 10043 10042 10041 10040 10038 10037 10035 10034 10033 10032 10030 10030 10028 10027 10027 10025 10025 10023 10023 10022 10021 10021 10020 10020 10019 10019 10018 10018 10017 10017 10017 10017 10016 10016 10016 10015 10015
10167 10163 10159 10155 10150 10146 10142 10137 10133 10130 10127 10124 10122 10118 10115 10112 10109 10107 10105 10102 10098 10095 10092 10090 10087 10085 10082 10080 10077 10075 10072 10070 10067 10065 10063 10062 10059 10057 10055 10053 10052 10051 10050 10048 10046 10044 10042 10040 10040 10039 10038 10037 10036 10035 10033 10032 10030 10029 10028 10027 10026 10025 10024 10023 10022 10021 10020 10019 10018 10018 10017 10017 10017 10016 10016 10015 10015 10015 10014 10014 10013 10013 10013 10013 10013 10013
10158 10154 10150 10146 10142 10138 10133 10129 10126 10123 10120 10118 10115 10111 10108 10105 10103 10101 10098 10096 10093 10089 10087 10084 10082 10080 10077 10075 10072 10069 10067 10065 10063 10061 10059 10057 10055 10053 10051 10050 10048 10047 10046 10045 10043 10040 10038 10037 10036 10035 10035 10034 10033 10031 10030 10028 10027 10026 10025 10023 10022 10022 10020 10020 10018 10017 10017 10016 10015 10015 10014 10014 10013 10013 10013 10012 10012 10012 10011 10011 10010 10010 10010 10010 10010 10010
10150 10146 10142 10138 10133 10130 10125 10122 10119 10117 10114 10111 10108 10105 10102 10100 10098 10096 10093 10090 10087 10084 10081 10079 10077 10075 10072 10070 10067 10065 10062 10060 10058 10057 10055 10053 10051 10049 10047 10046 10044 10043 10042 10041 10040 10038 10035 10033 10033 10032 10032 10030 10029 10028 10027 10025 10024 10023 10022 10020 10019 10018 10017 10016 10015 10014 10013 10013 10012 10012 10012 10011 10011 10010 10010 10010 10009 10009 10008 10008 10008 10007 10007 10007 10007 10007
10143 10140 10135 10131 10127 10122 10118 10115 10113 10110 10108 10105 10102 10098 10096 10094 10092 10090 10087 10084 10082 10078 10076 10074 10072 10070 10068 10065 10063 10060 10058 10055 10054 10053 10052 10050 10047 10045 10044 10042 10040 10039 10038 10037 10037 10035 10033 10031 10030 10028 10028 10027 10026 10025 10023 10022 10021 10020 10018 10017 10016 10015 10014 10013 10012 10012 10010 10010 10010 10009 10009 10008 10008 10008 10008 10007 10007 10007 10006 10005 10005 10005 10005 10004 10004 10004
10138 10133 10129 10125 10120 10115 10112 10109 10107 10104 10102 10098 10095 10092 10090 10088 10087 10085 10082 10079 10076 10074 10072 10069 10067 10065 10063 10061 10059 10057 10054 10052 10050 10049 10047 10046 10044 10042 10040 10039 10038 10036 10035 10033 10033 10032 10030 10028 10027 10026 10025 10024 10023 10022 10020 10019 10018 10017 10016 10015 10013 10012 10011 10010 10010 10008 10008 10007 10007 10007 10007 10007 10007 10006 10005 10005 10005 10004 10003 10003 10003 10003 10002 10002 10002 10002
10132 10127 10123 10118 10113 10110 10107 10104 10101 10098 10095 10092 10090 10087 10085 10083 10082 10079 10077 10074 10072 10069 10067 10065 10063 10060 10058 10057 10054 10052 10050 10048 10046 10045 10043 10042 10040 10038 10037 10036 10035 10033 10032 10030 10029 10028 10027 10026 10025 10023 10022 10021 10020 10019 10018 10017 10015 10014 10013 10012 10011 10010 10008 10008 10007 10006 10005 10005 10005 10005 10005 10005 10004 10004 10003 10003 10003 10002 10002 10002 10001 10001 10000 10000 10000 10000
10125 10121 10117 10113 10108 10105 10102 10098 10096 10093 10090 10087 10085 10082 10081 10079 10077 10075 10072 10069 10067 10065 10063 10061 10058 10057 10054 10052 10050 10048 10046 10044 10042 10041 10040 10039 10037 10035 10034 10032 10031 10030 10028 10027 10026 10025 10024 10023 10022 10021 10020 10018 10017 10017 10015 10014 10013 10012 10010 10010 10008 10007 10006 10005 10005 10004 10003 10003 10003 10003 10002 10002 10002 10002 10002 10001 10001 10000 10000 10000 9999 9999 9999 9998 9998 9998
10120 10115 10112 10108 10104 10100 10097 10094 10091 10088 10085 10082 10080 10078 10077 10074 10072 10070 10067 10065 10063 10061 10059 10057 10055 10052 10050 10048 10047 10045 10043 10040 10039 10037 10036 10035 10034 10032 10031 10029 10028 10027 10026 10025 10023 10022 10021 10020 10018 10018 10017 10016 10015 10014 10013 10012 10011 10010 10008 10007 10007 10005 10004 10003 10003 10002 10002 10001 10001 10000 10000 10001 10000 10000 10000 10000 9999 9998 9998 9998 9998 9997 9997 9997 9997 9997
10115 10110 10107 10103 10100 10097 10093 10090 10087 10083 10080 10078 10076 10074 10072 10070 10068 10066 10063 10061 10059 10057 10055 10053 10050 10048 10047 10045 10043 10041 10039 10037 10035 10034 10033 10032 10030 10029 10028 10026 10025 10024 10023 10022 10020 10019 10018 10017 10016 10015 10014 10013 10013 10012 10011 10010 10009 10008 10007 10005 10005 10003 10002 10002 10001 10000 10000 9999 9999 9999 9999 9999 9999 9999 9998 9998 9998 9997 9997 9997 9997 9996 9996 9995 9995 9995
10109 10105 10101 10098 10095 10092 10088 10085 10082 10079 10077 10074 10072 10070 10068 10066 10064 10062 10059 10057 10055 10053 10051 10049 10047 10045 10043 10041 10040 10038 10036 10034 10033 10031 10030 10028 10027 10026 10025 10023 10022 10022 10020 10019 10018 10017 10015 10014 10013 10012 10012 10011 10010 10010 10009 10008 10007 10006 10005 10004 10003 10002 10001 10000 9999 9998 9998 9998 9997 9997 9998 9998 9998 9997 9997 9997 9996 9996 9995 9995 9995 9995 9995 9994 9994 9994
10102 10098 10095 10092 10090 10087 10084 10081 10078 10075 10073 10070 10068 10066 10063 10062 10060 10058 10055 10053 10052 10049 10047 10045 10043 10042 10040 10038 10036 10035 10033 10031 10030 10028 10027 10025 10024 10023 10022 10021 10020 10018 10017 10017 10015 10014 10013 10012 10011 10010 10009 10008 10008 10007 10007 10006 10005 10005 10003 10002 10001 10000 9999 9998 9998 9997 9997 9996 9996 9996 9996 9996 9997 9996 9996 9995 9995 9995 9995 9994 9994 9993 9993 9993 9993 9993
10096 10093 10090 10087 10085 10082 10079 10076 10073 10071 10068 10067 10064 10062 10060 10058 10056 10054 10052 10050 10048 10046 10044 10042 10040 10038 10037 10035 10033 10032 10030 10028 10027 10025 10024 10023 10022 10020 10019 10018 10017 10016 10015 10013 10013 10012 10010 10010 10008 10007 10007 10006 10005 10005 10005 10004 10003 10003 10002 10001 10000 9999 9998 9997 9996 9995 9995 9995 9995 9995 9995 9995 9995 9995 9995 9995 9994 9994 9993 9993 9993 9993 9992 9992 9992 9992
10090 10087 10085 10082 10080 10077 10074 10072 10069 10067 10065 10062 10060 10058 10056 10053 10052 10050 10048 10047 10044 10042 10040 10038 10037 10035 10033 10032 10030 10028 10027 10025 10024 10023 10022 10020 10019 10018 10017 10015 10015 10013 10012 10011 10010 10009 10008 10007 10006 10005 10005 10003 10003 10003 10002 10002 10002 10001 10000 10000 9998 9998 9997 9996 9995 9995 9994 9993 9993 9993 9993 9993 9993 9994 9993 9993 9993 9993 9992 9992 9992 9992 9992 9992 9992 9992
10084 10082 10080 10077 10075 10072 10070 10067 10065 10063 10061 10058 10056 10054 10052 10050 10048 10047 10045 10043 10041 10039 10037 10035 10033 10032 10030 10028 10027 10026 10024 10023 10022 10020 10019 10018 10017 10015 10014 10013 10012 10011 10010 10008 10008 10007 10006 10005 10004 10003 10002 10002 10001 10000 10000 10000 9999 9999 9998 9998 9997 9997 9995 9995 9994 9993 9993 9993 9992 9992 9992 9992 9992 9993 9993 9993 9992 9992 9992 9991 9991 9991 9991 9991 9991 9992
10079 10077 10075 10073 10070 10067 10065 10063 10060 10058 10057 10055 10052 10050 10048 10047 10045 10043 10042 10040 10038 10036 10034 10032 10031 10029 10028 10026 10025 10023 10022 10020 10019 10018 10017 10015 10014 10013 10012 10011 10010 10008 10007 10007 10005 10004 10003 10003 10002 10002 10000 10000 9999 9998 9998 9997 9997 9997 9997 9997 9996 9995 9995 9993 9993 9992 9992 9992 9991 9991 9991 9991 9991 9991 9992 9992 9992 9991 9991 9990 9990 9990 9991 9991 9991 9991
10074 10072 10071 10068 10065 10063 10060 10058 10057 10055 10053 10050 10048 10047 10045 10043 10042 10040 10038 10037 10035 10033 10031 10029 10028 10027 10025 10023 10022 10020 10019 10018 10017 10015 10014 10013 10012 10011 10010 10008 10007 10006 10005 10004 10003 10002 10002 10001 10000 10000 9998 9998 9997 9997 9996 9995 9995 9995 9995 9994 9994 9994 9993 9993 9992 9992 9991 9991 9990 9990 9990 9990 9990 9990 9990 9990 9990 9990 9990 9990 9990 9990 9990 9990 9991 9991
10069 10067 10065 10063 10060 10058 10056 10054 10052 10051 10049 10047 10045 10043 10041 10040 10038 10037 10035 10033 10032 10030 10028 10027 10025 10023 10022 10021 10020 10018 10017 10015 10014 10013 10012 10010 10010 10008 10007 10006 10005 10004 10003 10002 10001 10000 10000 9998 9998 9997 9997 9996 9995 9995 9994 9994 9993 9993 9993 9992 9992 9992 9992 9992 9992 9991 9990 9990 9990 9989 9988 9988 9988 9988 9989 9989 9989 9989 9989 9990 9990 9990 9990 9990 9990 9991
10065 10063 10061 10058 10056 10054 10052 10050 10048 10047 10045 10043 10042 10040 10038 10036 10035 10033 10032 10030 10028 10027 10025 10024 10022 10021 10020 10018 10017 10016 10015 10013 10012 10011 10010 10008 10007 10006 10005 10004 10003 10002 10001 10000 9999 9998 9997 9997 9996 9995 9995 9994 9994 9993 9993 9992 9992 9991 9991 9990 9990 9990 9990 9990 9990 9990 9990 9989 9988 9988 9987 9987 9987 9987 9988 9988 9988 9988 9988 9989 9989 9990 9990 9990 9990 9991
10062 10059 10057 10055 10052 10050 10048 10047 10045 10043 10042 10040 10038 10036 10035 10033 10032 10030 10028 10027 10025 10024 10022 10021 10020 10018 10017 10016 10015 10013 10012 10011 10010 10008 10008 10007 10005 10004 10003 10002 10001 10000 9999 9998 9997 9997 9995 9995 9994 9993 9993 9992 9992 9992 9991 9990 9990 9989 9989 9988 9988 9988 9988 9988 9988 9988 9988 9988 9988 9987 9987 9986 9986 9986 9987 9987 9987 9988 9988 9988 9988 9989 9990 9990 9990 9990
10057 10055 10053 10051 10049 10047 10045 10043 10042 10040 10038 10037 10035 10033 10032 10030 10028 10027 10026 10024 10023 10022 10020 10018 10017 10016 10015 10013 10012 10011 10010 10009 10008 10007 10005 10005 10003 10002 10001 10000 9999 9998 9997 9997 9996 9995 9994 9993 9993 9992 9992 9991 9990 9990 9989 9988 9988 9988 9987 9987 9987 9987 9987 9987 9987 9987 9987 9987 9987 9987 9986 9985 9985 9985 9985 9985 9986 9987 9987 9988 9988 9988 9989 9990 9990 9990
10053 10052 10050 10048 10045 10043 10042 10040 10038 10037 10035 10033 10032 10030 10028 10027 10026 10025 10023 10022 10020 10019 10017 10016 10015 10013 10012 10011 10010 10009 10008 10007 10006 10005 10003 10003 10002 10000 10000 9998 9998 9997 9996 9995 9995 9993 9993 9992 9991 9990 9990 9989 9988 9988 9987 9987 9986 9986 9985 9985 9985 9985 9985 9985 9985 9985 9985 9986 9986 9985 9985 9984 9984 9984 9984 9984 9985 9986 9987 9987 9988 9988 9989 9989 9990 9990
10049 10047 10046 10044 10042 10040 10038 10037 10035 10033 10032 10030 10028 10027 10025 10024 10023 10022 10020 10019 10018 10017 10015 10014 10013 10012 10010 10009 10008 10007 10006 10005 10004 10003 10002 10001 10000 9998 9998 9997 9996 9995 9995 9994 9993 9993 9992 9991 9990 9989 9988 9987 9987 9986 9986 9985 9985 9984 9983 9983 9983 9983 9983 9983 9983 9983 9984 9984 9985 9985 9984 9983 9983 9983 9983 9983 9983 9985 9985 9987 9987 9988 9988 9989 9990 9990
10045 10043 10042 10040 10038 10037 10035 10033 10032 10030 10028 10027 10025 10024 10023 10022 10020 10019 10018 10017 10015 10014 10013 10012 10010 10009 10008 10007 10006 10005 10004 10003 10002 10001 10000 9999 9998 9997 9996 9995 9994 9993 9993 9993 9992 9992 9990 9990 9989 9988 9987 9986 9985 9985 9984 9983 9983 9983 9982 9982 9982 9981 9981 9981 9982 9982 9982 9983 9983 9983 9983 9983 9982 9982 9982 9982 9982 9983 9985 9986 9987 9988 9988 9989 9989 9990